User: anonymous   Login
Location: Fort Wayne
(41.1310°N, 85.1290°W)
Time: 17:39:25
(UTC-04:00)
Language:

Iridium 37 - Orbit

View from above orbital plane
View from above orbital plane
View from above satellite
View from above satellite

Ground track
Ground track

The orbit data is extracted from the following two-line orbital elements,

1 24968U 97056D   16244.50065868 -.00000037  00000-0 -20424-4 0  9999
2 24968  86.3922  79.9911 0002044  81.2221 278.9207 14.34215669991019
Epoch (UTC): 31 August 2016 12:00:56
Eccentricity: 0.0002044
inclination: 86.3922°
perigee height: 776 km
apogee height: 779 km
right ascension of ascending node: 79.9911°
argument of perigee: 81.2221°
revolutions per day: 14.34215669
mean anomaly at epoch: 278.9207°
orbit number at epoch: 99101

The dashed part of the orbit path shows where the satellite is in the earth's shadow,  

DLR